Regional Weather Roundup
Issued by NWS

Home | Current Version | Previous Version | Graphics & Text | Print | Product List | Glossary On
Versions: 1 2 3 4 5 6 7 8 9 10 11 12 13 14 15 16 17 18 19 20 21 22 23 24 25 26 27 28 29 30 31 32 33 34 35 36 37 38 39 40 41 42 43 44 45 46 47 48 49 50
000
ASUS43 KBIS 300902
RWRND

NORTH DAKOTA REGIONAL WEATHER ROUNDUP
NATIONAL WEATHER SERVICE BISMARCK ND
400 AM CDT SUN AUG 30 2015

NOTE: "FAIR" INDICATES FEW OR NO CLOUDS BELOW 12,000 FEET WITH NO
SIGNIFICANT WEATHER AND/OR OBSTRUCTIONS TO VISIBILITY.


NDZ001>003-009>011-017-301000-
NORTHWEST NORTH DAKOTA

CITY           SKY/WX    TMP DP  RH WIND       PRES   REMARKS
WILLISTON      CLOUDY    68  57  68 CALM      29.67F HAZE
MINOT          MOCLDY    75  58  55 CALM      29.70S
MINOT AFB      MOCLDY    68  62  83 CALM      29.70S
$$

NDZ018>021-031>035-040>046-301000-
SOUTHWEST NORTH DAKOTA

CITY           SKY/WX    TMP DP  RH WIND       PRES   REMARKS
BISMARCK       PTCLDY    66  63  90 E7        29.77F
DICKINSON      PTCLDY    65  51  60 S10       29.74F
GARRISON         N/A     67  61  81 E5        29.74F
HETTINGER ARPT PTCLDY    64  51  62 E5        29.80F
$$

NDZ004>008-012>016-024-026-027-054-301000-
NORTHEAST NORTH DAKOTA

CITY           SKY/WX    TMP DP  RH WIND       PRES   REMARKS
GRAND FORKS    MOCLDY    67  65  93 S10       29.78S
GRND FRKS AFB  MOCLDY    67  67  97 SE7       29.77F
DEVILS LAKE    MOCLDY    72  63  73 S7        29.75F
$$

NDZ022-023-025-028>030-036>039-047>053-301000-
SOUTHEAST NORTH DAKOTA

CITY           SKY/WX    TMP DP  RH WIND       PRES   REMARKS
FARGO          PTCLDY    66  62  87 S12       29.83S
JAMESTOWN      CLOUDY    67  66  97 S10       29.80S FOG
$$



USA.gov is the U.S. government's official web portal to all federal, state and local government web resources and services.